Weather History for Whiting Fld NAS, FL

Change the Weather History Date:

Friday, November 8, 2013

  Actual Average Record
Temperature  
Mean Temperature 55 °F -  
Max Temperature 66 °F 69 °F 82 °F (2005)
Min Temperature 44 °F 50 °F 35 °F (2007)
Degree Days  
Heating Degree Days 10    
Growing Degree Days 5 (Base 50)    
Moisture  
Dew Point 34 °F    
Average Humidity 51    
Maximum Humidity 68    
Minimum Humidity 32    
Precipitation  
Precipitation 0.00 in - - ()
Sea Level Pressure  
Sea Level Pressure 30.20 in    
Wind  
Wind Speed 8 mph (NNE)    
Max Wind Speed 15 mph    
Max Gust Speed 21 mph    
Visibility 10 miles    
Events      
Averages and records for this station are not official NWS values.
T = Trace of Precipitation, MM = Missing Value Source: NWS Daily Summary

Daily Weather History Graph

Daily Weather History Graph

Search for Another Location

Airport:

Trip Planner

Search our weather history database for the weather conditions in past years. The results will help you decide how hot, cold, wet, or windy it might be!

Date:

Astronomy

Nov. 08, 2013 Rise Set
Actual Time 6:08 AM CST 4:54 PM CST
Civil Twilight 5:43 AM CST 5:19 PM CST
Nautical Twilight 5:14 AM CST 5:48 PM CST
Astronomical Twilight 4:46 AM CST 6:16 PM CST
Moon 11:03 AM CST (11/8) 10:13 PM CST (11/8)
Length of Visible Light 11h 36m
Length of Day
10h 45m
Waxing Crescent, 33% of the Moon is Illuminated
Nov 8
Waxing Crescent
Nov 9
First Quarter
Nov 17
Full
Nov 25
Last Quarter
Dec 2
New

Hourly Weather History & Observations

Time (CST) Temp. Windchill Dew Point Humidity Pressure Visibility Wind Dir Wind Speed Gust Speed Precip Events Conditions
12:56 AM 48.0 °F - 36.0 °F 63% 30.19 in 10.0 mi North 9.2 mph - N/A   Clear
1:56 AM 46.9 °F - 35.1 °F 63% 30.19 in 10.0 mi North 6.9 mph - N/A   Clear
2:56 AM 46.0 °F 42.5 °F 33.1 °F 61% 30.18 in 10.0 mi North 6.9 mph - N/A   Clear
3:56 AM 46.0 °F 41.9 °F 32.0 °F 58% 30.20 in 10.0 mi North 8.1 mph - N/A   Clear
4:56 AM 44.1 °F 40.1 °F 32.0 °F 63% 30.21 in 10.0 mi North 6.9 mph - N/A   Clear
5:56 AM 45.0 °F 38.2 °F 30.0 °F 56% 30.22 in 10.0 mi North 15.0 mph 19.6 mph N/A   Partly Cloudy
6:56 AM 46.0 °F 40.2 °F 30.9 °F 56% 30.24 in 10.0 mi NNE 12.7 mph 20.7 mph N/A   Partly Cloudy
7:56 AM 50.0 °F - 30.9 °F 48% 30.25 in 10.0 mi NNE 6.9 mph 18.4 mph N/A   Clear
8:56 AM 54.0 °F - 30.9 °F 41% 30.27 in 10.0 mi Variable 6.9 mph 16.1 mph N/A   Clear
9:56 AM 57.0 °F - 30.9 °F 37% 30.25 in 10.0 mi NE 10.4 mph - N/A   Partly Cloudy
10:56 AM 60.1 °F - 32.0 °F 35% 30.24 in 10.0 mi North 8.1 mph - N/A   Partly Cloudy
11:56 AM 62.1 °F - 32.0 °F 32% 30.20 in 10.0 mi ENE 8.1 mph - N/A   Scattered Clouds
12:56 PM 64.9 °F - 34.0 °F 32% 30.17 in 10.0 mi North 9.2 mph - N/A   Scattered Clouds
1:56 PM 66.0 °F - 35.1 °F 32% 30.15 in 10.0 mi NNE 8.1 mph - N/A   Scattered Clouds
2:56 PM 64.9 °F - 34.0 °F 32% 30.15 in 10.0 mi NNE 8.1 mph - N/A   Mostly Cloudy
3:56 PM 63.0 °F - 36.0 °F 37% 30.15 in 10.0 mi NNE 8.1 mph - N/A   Mostly Cloudy
4:56 PM 57.9 °F - 37.0 °F 46% 30.16 in 10.0 mi NNE 8.1 mph - N/A   Mostly Cloudy
5:56 PM 54.0 °F - 37.0 °F 53% 30.17 in 10.0 mi NNE 3.5 mph - N/A   Mostly Cloudy
6:56 PM 52.0 °F - 37.0 °F 57% 30.19 in 10.0 mi Calm Calm - N/A   Scattered Clouds
7:56 PM 48.9 °F - 37.0 °F 64% 30.19 in 10.0 mi North 5.8 mph - N/A   Partly Cloudy
8:56 PM 48.9 °F - 37.0 °F 64% 30.20 in 10.0 mi NNE 5.8 mph - N/A   Clear
9:56 PM 48.9 °F - 37.0 °F 64% 30.20 in 10.0 mi NNE 4.6 mph - N/A   Partly Cloudy
10:56 PM 46.9 °F - 37.0 °F 68% 30.20 in 10.0 mi NNE 4.6 mph - N/A   Clear
11:56 PM 46.0 °F 43.1 °F 36.0 °F 68% 30.18 in 10.0 mi ENE 5.8 mph - N/A   Clear